Weather in Volok

Russia / Novgorod Oblast     58°30′52″N   33°45′30″E
temp.,
°C
wind,
m/s
gust,
m/s
humid.,
%
clouds,
%
prec.,
mm/h
press.,
hPa
HPBL,
m
25 january, mon
mon2500:00+2se3997100 0.0 1005285
03:00+3sse51298100 0.0 1004446
06:00+3sse51396100 0.1 1003483
09:00+3sse51396100 0.3 1004494
12:00+2sse51195100 0.1 1006448
15:00+2sse41095100 0.1 1007430
18:00+1se3896100 0.0 1007353
21:00+1se41096100 0.0 1007369
26 january, tue
tue2600:00+2se4996100 0.0 1008339
03:00+2se41097100 0.1 1008377
06:00+2se41097100 0.0 1006443
09:00+2ese51294100 0.0 1005481
12:00+2ese51294100 0.1 1004479
15:00+2ese51193100 0.1 1003707
18:00+2ese51292100 0.0 1001887
21:00+1ese51297100 0.1 1000690
27 january, wed
wed2700:00+1se51197100 0.4 1000736
03:00−1se5119199 0.6 999880
06:00−1se5108597 0.1 998917
09:00−1se499198 0.1 997707
12:00−1se488798 0.3 997734
15:00−1se379398 0.6 998522
18:00−2s129892 0.4 100080
21:00−2sw269680 0.4 1002185
28 january, thu
thu2800:00−3ssw119571 0.1 100322
03:00−3se229670 0.1 100446
06:00−4e229763 0.0 100454
09:00−4e259781 0.0 1004153
12:00−2e3591100 0.0 1003352
15:00−2ene3795100 0.3 1002406
18:00−2ene4995100 0.8 1001441
21:00−1e4995100 1.0 999308
29 january, fri
fri2900:00+2ese41097100 0.4 998353
03:00+2ese51294100 0.6 997642
06:00+2se51287100 0.1 996911
09:00−1se41184100 0.2 997718
12:00−1sse5982100 0.0 998966
15:00−1sse597799 0.1 998951
18:00−2sse4984100 0.1 1000772
21:00−3sse399099 0.1 1000467